FW1369 Weather Reports


time (UTC)temp
C
wind
direction
speed
KPH
gust
KPH
rain 1hr
cm
rain 24hr
cm
rain mn
cm
humidity
%
barometer
mb
20260906213050 20 53 3.2 14.5 0.00 0.00 0.00 68 1017.4
20260906212545 20 286 3.2 11.3 0.00 0.00 0.00 68 1017.4
20260906212045 20 328 1.6 19.3 0.00 0.00 0.00 67 1017.4
20260906211546 20 60 3.2 19.3 0.00 0.00 0.00 67 1017.3
20260906211045 20 18 3.2 11.3 0.00 0.00 0.00 68 1017.3
20260906210544 20 41 4.8 16.1 0.00 0.00 0.00 67 1017.3
20260906210044 20 42 4.8 16.1 0.00 0.00 0.00 68 1017.4
20260906205544 20 36 3.2 16.1 0.00 0.00 0.00 68 1017.3
20260906205044 20 82 6.4 16.1 0.00 0.00 0.00 67 1017.3
20260906204543 20 44 4.8 14.5 0.00 0.00 0.00 68 1017.3
20260906204043 20 88 4.8 14.5 0.00 0.00 0.00 68 1017.2
20260906203543 20 34 4.8 14.5 0.00 0.00 0.00 67 1017.1
20260906203043 20 46 3.2 16.1 0.00 0.00 0.00 66 1017.1
20260906202542 20 27 4.8 16.1 0.00 0.00 0.00 66 1017.1
20260906202042 21 37 3.2 16.1 0.00 0.00 0.00 65 1017.1
20260906201611 21 313 6.4 16.1 0.00 0.00 0.00 67 1017.0
20260906201041 21 342 3.2 12.9 0.00 0.00 0.00 68 1017.0
20260906200543 21 336 3.2 9.7 0.00 0.00 0.00 66 1017.0
20260906200041 21 44 3.2 9.7 0.00 0.00 0.00 66 1017.1
20260906195541 21 319 3.2 14.5 0.00 0.00 0.00 67 1017.1
20260906195040 21 56 4.8 14.5 0.00 0.00 0.00 66 1017.1
20260906194553 21 32 4.8 14.5 0.00 0.00 0.00 64 1017.1
20260906194041 21 88 3.2 17.7 0.00 0.00 0.00 64 1017.2
20260906193540 21 350 3.2 17.7 0.00 0.00 0.00 65 1017.2
20260906193044 21 50 6.4 16.1 0.00 0.00 0.00 65 1017.1
20260906192540 21 41 4.8 16.1 0.00 0.00 0.00 65 1017.0
20260906192040 21 24 3.2 14.5 0.00 0.00 0.00 66 1017.0
20260906191540 21 360 4.8 14.5 0.00 0.00 0.00 65 1017.0
20260906191039 21 81 3.2 8.0 0.00 0.00 0.00 65 1017.0
20260906190542 21 328 1.6 11.3 0.00 0.00 0.00 65 1016.9
20260906190038 21 15 1.6 14.5 0.00 0.00 0.00 64 1017.0
20260906185537 21 12 4.8 14.5 0.00 0.00 0.00 64 1017.0
20260906185037 21 69 6.4 12.9 0.00 0.00 0.00 64 1017.0
20260906184537 21 9 3.2 12.9 0.00 0.00 0.00 64 1017.0
20260906184040 21 24 1.6 14.5 0.00 0.00 0.00 66 1017.0
20260906183536 21 360 3.2 14.5 0.00 0.00 0.00 65 1017.0
20260906183037 21 36 3.2 12.9 0.00 0.00 0.00 65 1017.0
20260906182535 21 350 3.2 14.5 0.00 0.00 0.00 65 1017.1
20260906182034 21 42 4.8 14.5 0.00 0.00 0.00 64 1017.1
20260906181543 21 340 6.4 16.1 0.00 0.00 0.00 65 1017.1
20260906181034 21 38 4.8 16.1 0.00 0.00 0.00 65 1017.0
20260906180532 21 52 3.2 14.5 0.00 0.00 0.00 65 1017.1
20260906180035 21 49 4.8 17.7 0.00 0.00 0.00 66 1017.1
20260906175531 21 34 4.8 17.7 0.00 0.00 0.00 66 1017.2
20260906175030 21 62 4.8 14.5 0.00 0.00 0.00 65 1017.0
20260906174530 21 60 4.8 14.5 0.00 0.00 0.00 65 1017.1
20260906174030 21 27 4.8 14.5 0.00 0.00 0.00 64 1017.1
20260906173529 21 19 6.4 14.5 0.00 0.00 0.00 65 1017.1
20260906173030 21 50 8.0 14.5 0.00 0.00 0.00 64 1017.0
20260906172532 21 90 6.4 16.1 0.00 0.00 0.00 64 1017.1
20260906172032 21 55 6.4 16.1 0.00 0.00 0.00 66 1017.2
20260906171531 21 85 4.8 12.9 0.00 0.00 0.00 66 1017.2
20260906171028 21 80 3.2 12.9 0.00 0.00 0.00 67 1017.2
20260906170528 21 65 4.8 16.1 0.00 0.00 0.00 65 1017.3
20260906170029 21 33 3.2 16.1 0.00 0.00 0.00 67 1017.3
20260906165527 21 23 4.8 19.3 0.00 0.00 0.00 67 1017.2
20260906165030 21 32 6.4 19.3 0.00 0.00 0.00 66 1017.2
20260906164526 21 355 6.4 17.7 0.00 0.00 0.00 66 1017.1
20260906164027 21 25 6.4 16.1 0.00 0.00 0.00 67 1017.0
20260906163525 21 360 3.2 17.7 0.00 0.00 0.00 67 1017.0
20260906163040 21 348 6.4 17.7 0.00 0.00 0.00 67 1017.0
20260906162528 21 355 3.2 17.7 0.00 0.00 0.00 67 1017.0
20260906162027 21 44 3.2 17.7 0.00 0.00 0.00 68 1017.0
20260906161526 21 77 9.7 17.7 0.00 0.00 0.00 67 1017.0
20260906161022 21 64 8.0 16.1 0.00 0.00 0.00 69 1017.0
20260906160520 21 58 3.2 14.5 0.00 0.00 0.00 72 1017.0
20260906160022 21 45 4.8 14.5 0.00 0.00 0.00 72 1016.9
20260906155520 21 51 6.4 12.9 0.00 0.00 0.00 73 1016.9
20260906155018 20 101 1.6 16.1 0.00 0.00 0.00 73 1016.9
20260906154516 20 103 4.8 16.1 0.00 0.00 0.00 73 1017.0
20260906154015 20 44 3.2 14.5 0.00 0.00 0.00 75 1016.9
20260906153514 20 34 1.6 14.5 0.00 0.00 0.00 75 1016.9
20260906153014 20 5 4.8 14.5 0.00 0.00 0.00 75 1016.9
20260906152513 20 89 3.2 19.3 0.00 0.00 0.00 76 1016.8
20260906152012 20 18 6.4 19.3 0.00 0.00 0.00 76 1016.8
20260906151512 20 107 4.8 14.5 0.00 0.00 0.00 79 1016.8
20260906151015 19 82 1.6 12.9 0.00 0.00 0.00 81 1016.8
20260906150509 19 30 0.0 11.3 0.00 0.00 0.00 80 1016.9
20260906150012 19 48 3.2 11.3 0.00 0.00 0.00 81 1016.9
20260906145507 19 308 1.6 12.9 0.00 0.00 0.00 81 1016.8
20260906145007 18 355 4.8 12.9 0.00 0.00 0.00 82 1016.8
20260906144507 18 336 4.8 11.3 0.00 0.00 0.00 82 1016.8
20260906144006 18 15 3.2 12.9 0.00 0.00 0.00 83 1016.9
20260906143505 18 5 3.2 12.9 0.00 0.00 0.00 84 1016.8
20260906143004 18 60 1.6 11.3 0.00 0.00 0.00 85 1016.8
20260906142504 18 54 3.2 12.9 0.00 0.00 0.00 85 1016.8
20260906142003 18 40 3.2 16.1 0.00 0.00 0.00 86 1016.8
20260906141501 18 57 3.2 16.1 0.00 0.00 0.00 86 1016.7
20260906141105 18 90 3.2 16.1 0.00 0.00 0.00 87 1016.7
20260906140559 17 327 3.2 14.5 0.00 0.00 0.00 87 1016.6
20260906140108 17 40 3.2 14.5 0.00 0.00 0.00 88 1016.5
20260906135557 17 88 4.8 14.5 0.00 0.00 0.00 88 1016.5
20260906135056 17 76 3.2 16.1 0.00 0.00 0.00 88 1016.4
20260906134612 17 80 3.2 16.1 0.00 0.00 0.00 89 1016.3
20260906134056 17 343 3.2 14.5 0.00 0.00 0.00 89 1016.4
20260906133556 17 360 4.8 12.9 0.00 0.00 0.00 89 1016.5
20260906133059 17 63 1.6 8.0 0.00 0.00 0.00 89 1016.5
20260906132556 17 65 1.6 12.9 0.00 0.00 0.00 89 1016.4
20260906132053 17 71 1.6 12.9 0.00 0.00 0.00 89 1016.4
20260906131554 17 10 3.2 14.5 0.00 0.00 0.00 89 1016.3
20260906131052 17 34 4.8 16.1 0.00 0.00 0.00 89 1016.2
20260906130552 17 80 4.8 16.1 0.00 0.00 0.00 89 1016.3
20260906125555 17 78 1.6 9.7 0.00 0.00 0.00 89 1016.3
20260906125051 17 48 1.6 12.9 0.00 0.00 0.00 89 1016.1
20260906124550 17 78 4.8 12.9 0.00 0.00 0.00 89 1016.2
20260906124053 17 76 1.6 14.5 0.00 0.00 0.00 89 1016.1
20260906123549 17 86 4.8 14.5 0.00 0.00 0.00 89 1016.2
20260906123050 17 20 1.6 6.4 0.00 0.00 0.00 89 1016.1
20260906122551 16 5 1.6 6.4 0.00 0.00 0.00 89 1016.1
20260906122049 16 23 0.0 0.0 0.00 0.00 0.00 89 1016.1
20260906121550 16 22 0.0 0.0 0.00 0.00 0.00 89 1016.1
20260906121051 16 22 0.0 0.0 0.00 0.00 0.00 89 1016.0
20260906120548 16 22 0.0 0.0 0.00 0.00 0.00 89 1016.0
20260906120047 16 22 0.0 0.0 0.00 0.00 0.00 89 1015.9
20260906115548 16 22 0.0 0.0 0.00 0.00 0.00 88 1015.8
20260906115044 16 22 0.0 0.0 0.00 0.00 0.00 88 1015.6
20260906114544 16 22 0.0 0.0 0.00 0.00 0.00 88 1015.6
20260906114043 15 23 0.0 0.0 0.00 0.00 0.00 88 1015.6
20260906113543 15 23 0.0 0.0 0.00 0.00 0.00 88 1015.5
20260906113043 15 23 0.0 0.0 0.00 0.00 0.00 87 1015.5
20260906112543 15 23 0.0 0.0 0.00 0.00 0.00 87 1015.5
20260906112042 15 23 0.0 0.0 0.00 0.00 0.00 87 1015.4
20260906111546 15 23 0.0 0.0 0.00 0.00 0.00 87 1015.4
20260906111044 15 23 0.0 0.0 0.00 0.00 0.00 87 1015.4
20260906110542 15 23 0.0 0.0 0.00 0.00 0.00 87 1015.4
20260906110039 15 23 0.0 0.0 0.00 0.00 0.00 87 1015.2
20260906105539 15 23 0.0 0.0 0.00 0.00 0.00 87 1015.2
20260906105039 15 23 0.0 0.0 0.00 0.00 0.00 87 1015.2
20260906104538 15 23 0.0 0.0 0.00 0.00 0.00 87 1015.1
20260906104040 15 23 0.0 0.0 0.00 0.00 0.00 87 1015.1
20260906103539 15 23 0.0 0.0 0.00 0.00 0.00 87 1015.1
20260906103037 15 23 0.0 0.0 0.00 0.00 0.00 87 1015.1
20260906102537 15 23 0.0 0.0 0.00 0.00 0.00 87 1015.0
20260906102036 15 23 0.0 0.0 0.00 0.00 0.00 87 1014.9
20260906101535 15 23 0.0 0.0 0.00 0.00 0.00 86 1014.8
20260906101035 15 23 0.0 0.0 0.00 0.00 0.00 86 1014.8
20260906100535 15 23 0.0 0.0 0.00 0.00 0.00 86 1014.7
20260906100039 15 23 0.0 0.0 0.00 0.00 0.00 86 1014.6
20260906095534 15 23 0.0 0.0 0.00 0.00 0.00 86 1014.6
20260906095032 15 23 0.0 0.0 0.00 0.00 0.00 86 1014.6
20260906094532 15 23 0.0 0.0 0.00 0.00 0.00 86 1014.6
20260906094030 15 23 0.0 0.0 0.00 0.00 0.00 86 1014.5
20260906093531 15 23 0.0 0.0 0.00 0.00 0.00 86 1014.5
20260906093044 15 23 0.0 0.0 0.00 0.00 0.00 86 1014.5
20260906092529 15 23 0.0 0.0 0.00 0.00 0.00 86 1014.5
20260906092029 15 23 0.0 0.0 0.00 0.00 0.00 86 1014.4
20260906091528 16 23 0.0 0.0 0.00 0.00 0.00 86 1014.3
20260906091028 16 23 0.0 0.0 0.00 0.00 0.00 86 1014.2
20260906090525 16 23 0.0 0.0 0.00 0.00 0.00 86 1014.1
20260906090025 16 23 0.0 0.0 0.00 0.00 0.00 86 1014.0
20260906085524 16 23 0.0 0.0 0.00 0.00 0.00 86 1013.9
20260906085024 16 23 0.0 0.0 0.00 0.00 0.00 86 1013.8
20260906084525 16 23 0.0 0.0 0.00 0.00 0.00 86 1013.8
20260906084024 16 23 0.0 0.0 0.00 0.00 0.00 86 1013.7
20260906083524 16 23 0.0 0.0 0.00 0.00 0.00 86 1013.7
20260906083025 16 23 0.0 0.0 0.00 0.00 0.00 86 1013.7
20260906082523 16 23 0.0 0.0 0.00 0.00 0.00 86 1013.7
20260906082023 16 23 0.0 0.0 0.00 0.00 0.00 86 1013.7
20260906081542 16 23 0.0 0.0 0.00 0.00 0.00 86 1013.7
20260906081023 16 23 0.0 0.0 0.00 0.00 0.00 86 1013.6
20260906080521 16 23 0.0 0.0 0.00 0.00 0.00 86 1013.7
20260906080021 16 23 0.0 0.0 0.00 0.00 0.00 86 1013.7
20260906075520 16 23 0.0 0.0 0.00 0.00 0.00 86 1013.7
20260906075019 16 23 0.0 0.0 0.00 0.00 0.00 86 1013.6
20260906074519 16 23 0.0 0.0 0.00 0.00 0.00 86 1013.6
20260906074018 16 23 0.0 0.0 0.00 0.00 0.00 86 1013.5
20260906073518 16 23 0.0 0.0 0.00 0.00 0.00 86 1013.5
20260906073035 16 23 0.0 0.0 0.00 0.00 0.00 86 1013.6
20260906072517 17 23 0.0 0.0 0.00 0.00 0.00 86 1013.6
20260906072017 17 23 0.0 0.0 0.00 0.00 0.00 86 1013.5
20260906071516 17 23 0.0 0.0 0.00 0.00 0.00 86 1013.5
20260906071016 17 23 0.0 0.0 0.00 0.00 0.00 86 1013.6
20260906070518 17 23 0.0 0.0 0.00 0.00 0.00 86 1013.6
20260906070016 17 23 0.0 0.0 0.00 0.00 0.00 86 1013.6
20260906065514 17 23 0.0 0.0 0.00 0.00 0.00 86 1013.6
20260906065014 17 23 0.0 0.0 0.00 0.00 0.00 86 1013.7
20260906064518 17 23 0.0 0.0 0.00 0.00 0.00 86 1013.6
20260906064015 17 23 0.0 0.0 0.00 0.00 0.00 85 1013.6
20260906063516 17 23 0.0 0.0 0.00 0.00 0.00 85 1013.7
20260906063014 17 23 0.0 0.0 0.00 0.00 0.00 85 1013.7
20260906062514 17 23 0.0 0.0 0.00 0.00 0.00 85 1013.7
20260906062013 17 23 0.0 0.0 0.00 0.00 0.00 85 1013.7
20260906061512 17 23 0.0 0.0 0.00 0.00 0.00 85 1013.7
20260906061013 17 23 0.0 0.0 0.00 0.00 0.00 85 1013.7
20260906060514 17 23 0.0 0.0 0.00 0.00 0.00 85 1013.7
20260906060011 17 23 0.0 0.0 0.00 0.00 0.00 85 1013.6
20260906055512 17 23 0.0 0.0 0.00 0.00 0.00 85 1013.6
20260906055012 17 23 0.0 0.0 0.00 0.00 0.00 85 1013.6
20260906054515 17 23 0.0 0.0 0.00 0.00 0.00 85 1013.7
20260906054011 17 23 0.0 0.0 0.00 0.00 0.00 84 1013.7
20260906053511 17 23 0.0 0.0 0.00 0.00 0.00 84 1013.9
20260906053011 17 23 0.0 0.0 0.00 0.00 0.00 84 1013.9
20260906052511 17 23 0.0 0.0 0.00 0.00 0.00 84 1013.9
20260906052011 17 23 0.0 0.0 0.00 0.00 0.00 84 1013.9
20260906051518 17 23 0.0 0.0 0.00 0.00 0.00 84 1013.9
20260906051010 17 23 0.0 0.0 0.00 0.00 0.00 84 1013.9
20260906050508 17 23 0.0 0.0 0.00 0.00 0.00 84 1013.9
20260906050008 17 23 0.0 0.0 0.00 0.00 0.00 84 1013.8
20260906045508 17 23 0.0 0.0 0.00 0.00 0.00 83 1013.8
20260906045008 17 23 0.0 0.0 0.00 0.00 0.00 83 1013.7
20260906044506 17 23 0.0 0.0 0.00 0.00 0.00 83 1013.6
20260906044006 17 23 0.0 0.0 0.00 0.00 0.00 83 1013.6
20260906043505 17 23 0.0 0.0 0.00 0.00 0.00 83 1013.6
20260906043005 17 23 0.0 0.0 0.00 0.00 0.00 83 1013.6
20260906042506 17 23 0.0 0.0 0.00 0.00 0.00 83 1013.6
20260906042004 17 23 0.0 0.0 0.00 0.00 0.00 83 1013.6
20260906041504 17 23 0.0 0.0 0.00 0.00 0.00 83 1013.6
20260906041003 17 23 0.0 0.0 0.00 0.00 0.00 83 1013.5
20260906040502 17 23 0.0 0.0 0.00 0.00 0.00 83 1013.6
20260906040003 17 23 0.0 0.0 0.00 0.00 0.00 83 1013.6
20260906035502 17 23 0.0 0.0 0.00 0.00 0.00 83 1013.6
20260906035100 17 23 0.0 0.0 0.00 0.00 0.00 83 1013.5
20260906034600 17 23 0.0 0.0 0.00 0.00 0.00 83 1013.4
20260906034101 17 23 0.0 0.0 0.00 0.00 0.00 82 1013.4
20260906033601 17 23 0.0 0.0 0.00 0.00 0.00 82 1013.4
20260906033201 17 23 0.0 0.0 0.00 0.00 0.00 82 1013.4
20260906032601 17 23 0.0 0.0 0.00 0.00 0.00 82 1013.3
20260906032102 17 23 0.0 0.0 0.00 0.00 0.00 83 1013.3
20260906031608 17 23 0.0 0.0 0.00 0.00 0.00 82 1013.4
20260906031059 17 23 0.0 0.0 0.00 0.00 0.00 82 1013.4
20260906030559 17 23 0.0 0.0 0.00 0.00 0.00 82 1013.4
20260906030108 17 23 0.0 0.0 0.00 0.00 0.00 82 1013.3
20260906025558 17 23 0.0 0.0 0.00 0.00 0.00 82 1013.3
20260906025059 17 23 0.0 0.0 0.00 0.00 0.00 82 1013.3
20260906024556 17 23 0.0 0.0 0.00 0.00 0.00 82 1013.3
20260906024101 17 23 0.0 0.0 0.00 0.00 0.00 82 1013.2
20260906023557 17 23 0.0 0.0 0.00 0.00 0.00 81 1013.2
20260906023120 17 23 0.0 0.0 0.00 0.00 0.00 81 1013.1
20260906022556 17 23 0.0 0.0 0.00 0.00 0.00 81 1013.1
20260906022056 17 23 0.0 0.0 0.00 0.00 0.00 81 1013.1
20260906021556 17 23 0.0 0.0 0.00 0.00 0.00 81 1013.1
20260906021056 17 23 0.0 0.0 0.00 0.00 0.00 81 1013.1
20260906020555 18 23 0.0 0.0 0.00 0.00 0.00 81 1013.1
20260906020055 18 23 0.0 0.0 0.00 0.00 0.00 81 1013.1
20260906015555 18 23 0.0 0.0 0.00 0.00 0.00 81 1013.1
20260906015055 18 23 0.0 0.0 0.00 0.00 0.00 81 1013.1
20260906014617 18 23 0.0 0.0 0.00 0.00 0.00 81 1013.0
20260906014054 18 23 0.0 0.0 0.00 0.00 0.00 81 1013.0
20260906013553 18 23 0.0 0.0 0.00 0.00 0.00 80 1012.9
20260906013057 18 23 0.0 0.0 0.00 0.00 0.00 80 1012.9
20260906012553 18 23 0.0 0.0 0.00 0.00 0.00 80 1012.9
20260906012053 18 23 0.0 0.0 0.00 0.00 0.00 80 1012.8
20260906011556 18 23 0.0 0.0 0.00 0.00 0.00 80 1012.9
20260906011052 18 23 0.0 0.0 0.00 0.00 0.00 80 1012.9
20260906010552 18 23 0.0 0.0 0.00 0.00 0.00 79 1012.9
20260906010052 18 23 0.0 0.0 0.00 0.00 0.00 79 1012.9
20260906005551 19 23 0.0 0.0 0.00 0.00 0.00 79 1012.9
20260906005051 19 23 0.0 0.0 0.00 0.00 0.00 79 1012.9
20260906004604 19 23 0.0 0.0 0.00 0.00 0.00 78 1012.8
20260906004053 19 23 0.0 0.0 0.00 0.00 0.00 78 1012.7
20260906003551 19 23 0.0 0.0 0.00 0.00 0.00 77 1012.7
20260906003053 19 23 0.0 0.0 0.00 0.00 0.00 77 1012.6
20260906002550 20 23 0.0 0.0 0.00 0.00 0.00 77 1012.7
20260906002050 20 23 0.0 0.0 0.00 0.00 0.00 77 1012.7
20260906001550 20 23 0.0 0.0 0.00 0.00 0.00 77 1012.7
20260906001051 20 23 0.0 0.0 0.00 0.00 0.00 77 1012.7
20260906000551 20 23 0.0 1.6 0.00 0.00 0.00 77 1012.7
20260906000059 20 23 0.0 1.6 0.00 0.00 0.00 77 1012.8
20260905235549 20 23 0.0 3.2 0.00 0.00 0.00 76 1012.8
20260905235049 20 23 0.0 3.2 0.00 0.00 0.00 75 1012.7
20260905234555 20 23 0.0 1.6 0.00 0.00 0.00 75 1012.7
20260905234049 20 23 0.0 1.6 0.00 0.00 0.00 75 1012.7
20260905233549 21 23 0.0 3.2 0.00 0.00 0.00 74 1012.7
20260905233051 21 23 0.0 3.2 0.00 0.00 0.00 74 1012.7
20260905232548 21 23 0.0 6.4 0.00 0.00 0.00 74 1012.7
20260905232048 21 23 1.6 6.4 0.00 0.00 0.00 74 1012.8
20260905231548 21 19 0.0 4.8 0.00 0.00 0.00 74 1012.7
20260905231048 21 19 0.0 8.0 0.00 0.00 0.00 73 1012.7
20260905230548 21 19 1.6 8.0 0.00 0.00 0.00 73 1012.8
20260905230048 21 13 1.6 8.0 0.00 0.00 0.00 72 1012.7
20260905225546 22 31 1.6 6.4 0.00 0.00 0.00 72 1012.8
20260905225046 22 32 1.6 4.8 0.00 0.00 0.00 72 1012.7
20260905224600 22 32 0.0 8.0 0.00 0.00 0.00 71 1012.7
20260905224047 22 33 1.6 8.0 0.00 0.00 0.00 71 1012.8
20260905223545 22 30 1.6 8.0 0.00 0.00 0.00 70 1012.8
20260905223045 22 40 3.2 8.0 0.00 0.00 0.00 70 1012.7
20260905222545 22 51 1.6 9.7 0.00 0.00 0.00 69 1012.7
20260905222044 22 40 1.6 9.7 0.00 0.00 0.00 69 1012.7
20260905221544 22 56 1.6 6.4 0.00 0.00 0.00 70 1012.6
20260905221044 23 346 1.6 16.1 0.00 0.00 0.00 70 1012.6
20260905220544 23 96 4.8 16.1 0.00 0.00 0.00 70 1012.5
20260905220044 23 52 4.8 12.9 0.00 0.00 0.00 70 1012.5
20260905215544 23 9 4.8 12.9 0.00 0.00 0.00 69 1012.4
20260905215043 23 40 1.6 11.3 0.00 0.00 0.00 68 1012.3
20260905214545 23 84 1.6 9.7 0.00 0.00 0.00 68 1012.3
20260905214043 23 54 1.6 9.7 0.00 0.00 0.00 67 1012.3
20260905213542 23 59 3.2 9.7 0.00 0.00 0.00 67 1012.2